ヴィルト第2彗星

81P/Wild 2 (2022)

English version
Home page
Updated on May 1, 2022

---------------------------------------------------------------------

・ プロフィール

・ 写真集

・ 軌道要素

Epoch 2022 Jan. 21.0 TT = JDT 2459600.5
T 2022 Dec. 15.67062 TT                                 Rudenko
q   1.5982802            (2000.0)            P               Q
n   0.15362305     Peri.   41.65370     -0.99849564     -0.03838983
a   3.4527500      Node   136.09880     +0.02175483     -0.93276849
e   0.5370994      Incl.    3.23657     +0.05033077     -0.35842596
P   6.42
From 1628 observations 2014 Oct. 18-2022 Jan. 29, mean residual 0".6.
     Nongravitational parameters A1 = -0.05, A2 = -0.1005.

・ 星図

・ 光度変化

        m1 = 6.3 + 5 logΔ + 18.0 log r(t + 20)  [  ,95]  (              〜2023年 3月20日)
        m1 = 8.2 + 5 logΔ + 12.5 log r          [95,  ]  (2023年 3月20日〜              )

---------------------------------------------------------------------

軌道要素はM.P.E.C. 2022-C56に掲載されたものです。
星図はステラナビゲータ Ver.10 (アストロアーツ) で作成したものです。
光度グラフはComet for Windowsで作成したものです。

---------------------------------------------------------------------

Copyright(C) Seiichi Yoshida (comet@aerith.net). All rights reserved.